Temperature
13 13 13 13 13 13 13 12 12 12 12 12 12 12 12 12 12 12 12 12 12 12 12 12 12 12 12 12 12 12 12 11 11 11 11 11 11 11 11 11 11 11 11
12 12 12 12 12 12 12 12 12 12 12 12 12 12 12 12 12 12 12 12 12 12 12 12 12 12 12 11 11 11 11 11 11 11 11 11 11 11 11 11 11 11 11
12 12 12 12 12 12 12 12 12 12 12 12 12 11 11 11 11 12 12 12 12 11 11 11 11 11 11 11 11 11 11 11 11 11 11 11 11 11 11 10 10 10 10
12 12 12 12 12 12 11 11 11 11 11 11 11 11 11 11 11 11 11 11 11 11 11 11 11 11 11 11 11 11 10 10 10 10 10 10 10 10 10 10 10 10 10
11 11 11 11 11 11 11 11 11 11 11 11 11 10 10 10 11 10 11 11 11 11 11 11 11 11 11 10 10 10 10 10 10 10 10 10 10 10 10 10 10 10 10
11 11 11 11 11 11 11 11 11 11 11 10 10 10 10 10 10 10 10 10 10 10 10 10 10 10 10 10 10 10 10 10 10 9 9 9 9 9 9 9 9 9 9
11 11 11 11 11 11 11 11 10 10 10 10 10 10 10 10 10 10 10 10 10 10 10 10 10 10 10 10 9 9 9 9 9 9 9 9 9 9 9 9 9 9 9
10 10 10 10 10 10 10 10 10 10 10 9 9 9 9 9 9 9 9 9 9 9 9 9 9 9 9 9 9 9 9 9 8 8 8 8 8 8 8 8 8 8 8
10 10 10 10 10 10 10 10 10 10 10 9 9 9 9 9 8 8 8 9 8 9 9 9 9 9 9 9 9 8 8 8 8 8 8 8 8 8 8 8 8 8 8
10 10 10 10 10 10 10 10 10 9 9 9 9 9 9 9 8 8 8 8 8 8 8 8 8 8 8 8 8 8 8 8 8 8 7 7 7 7 7 7 7 7 7
9 9 9 9 9 9 9 9 9 9 9 9 9 8 8 8 8 8 8 8 8 8 8 8 7 8 7 7 7 7 7 7 7 7 7 7 7 7 7 7 7 7 7
9 9 9 9 9 9 9 9 9 8 8 8 8 8 8 8 8 8 8 7 7 7 7 7 7 7 7 7 7 7 7 7 7 7 7 7 7 6 6 6 6 6 6
9 9 9 9 9 9 8 8 8 8 8 8 8 8 8 7 7 7 7 7 6 7 7 7 7 7 7 7 7 7 6 6 6 6 6 6 6 6 6 6 6 6 6
9 9 9 9 8 8 8 8 8 8 8 8 7 7 7 7 7 7 7 7 6 6 6 6 7 6 6 6 6 6 6 6 6 6 6 6 6 6 6 6 6 6 6
8 8 8 8 8 8 8 8 8 7 7 7 7 7 7 6 6 6 6 6 6 6 6 6 6 6 6 6 6 6 6 6 6 6 6 5 5 5 5 5 5 5 5
8 8 8 8 8 8 7 7 7 7 7 7 7 7 6 6 6 6 6 6 6 6 5 6 6 6 6 6 5 5 5 5 5 5 5 5 5 5 5 5 5 5 5
7 7 7 7 7 7 7 7 7 7 7 7 6 6 6 6 6 6 5 5 5 5 5 5 5 5 5 5 5 5 5 5 5 5 5 5 5 5 4 4 4 4 4
7 7 7 7 7 7 6 6 6 6 6 6 6 6 6 6 5 5 5 5 5 5 5 5 5 5 5 5 5 4 4 4 4 4 4 4 4 4 4 4 4 4 4
6 6 6 6 6 6 6 6 6 6 6 6 6 6 6 5 5 5 5 5 5 4 4 4 4 4 4 4 4 4 4 4 4 4 4 4 4 4 3 3 3 3 3
5 5 5 6 6 6 5 5 5 5 5 5 5 5 5 5 5 5 5 5 4 4 4 4 4 4 4 4 4 4 4 4 3 3 3 3 3 3 3 3 3 3 3
5 5 5 5 5 5 5 5 5 5 5 5 5 5 5 4 4 4 4 4 4 3 3 3 3 3 3 4 4 3 3 3 3 3 3 3 3 3 3 3 3 2 2
5 5 4 4 4 4 4 4 4 4 4 4 4 4 4 4 4 4 4 3 3 3 3 3 3 3 3 3 3 3 3 2 2 3 2 3 2 2 3 2 2 2 2
4 4 4 4 4 4 4 4 4 4 4 4 4 4 3 3 3 3 3 3 3 3 3 3 2 3 3 3 2 2 2 2 2 2 2 2 2 2 2 2 2 2 1
4 4 4 4 4 4 3 3 3 3 3 3 3 3 3 3 3 3 2 2 2 2 2 2 2 2 2 2 2 2 2 2 1 1 1 1 2 2 2 2 1 1 1
3 3 3 3 3 3 3 3 3 3 3 3 3 3 2 2 2 2 2 2 2 2 2 2 2 1 1 1 1 1 1 1 1 1 1 0 1 1 1 1 1 1 0
3 3 3 3 3 3 2 2 2 2 2 2 2 2 2 2 2 1 1 1 1 1 1 1 1 1 1 1 1 1 0 0 -0 -0 0 -0 -0 -0 -0 0 0 0 -0
Wind_Speed
5 6 6 6 6 7 7 6 5 5 5 5 5 6 6 6 6 6 5 6 7 7 8 8 7 8 8 8 8 8 7 7 6 6 6 6 7 7 8 7 7 8 8
8 6 5 5 6 7 7 6 6 5 4 4 4 5 5 6 6 6 6 6 6 7 7 7 7 7 7 7 7 7 7 6 6 6 6 7 7 7 7 7 7 7 8
9 8 5 4 5 7 7 6 6 6 4 4 3 4 5 6 7 7 6 6 5 5 6 6 6 6 6 6 6 6 6 6 6 5 6 6 6 5 5 5 5 6 6
10 8 5 4 6 7 7 4 3 3 3 3 3 3 4 5 6 6 6 6 6 5 5 5 4 5 5 5 5 5 5 5 5 5 5 4 4 4 4 4 4 4 4
10 9 6 6 8 6 4 4 3 4 4 4 4 4 4 4 4 5 6 6 6 6 5 4 4 4 4 4 4 4 5 5 4 5 4 4 3 3 3 3 2 2 2
9 9 6 7 7 5 3 3 4 4 4 4 5 5 4 3 4 4 4 4 5 5 5 4 4 3 3 3 2 3 3 4 4 5 4 3 3 3 2 2 2 2 2
9 8 6 6 6 4 5 5 4 5 3 3 4 3 4 4 3 3 3 4 4 4 5 4 4 3 2 2 1 1 2 3 4 4 3 3 3 2 1 1 1 1 2
8 8 7 5 5 4 5 5 5 3 2 2 3 3 1 2 3 2 2 2 2 3 4 3 3 3 3 2 1 1 1 1 3 4 3 3 3 2 1 1 1 1 1
7 7 8 6 5 5 5 5 6 5 4 1 2 3 3 3 0 2 2 2 2 2 3 3 2 3 3 2 1 1 1 0 1 2 3 3 3 3 2 2 2 2 2
6 7 7 7 6 5 5 5 4 4 5 3 1 1 2 3 3 0 2 1 1 1 1 1 1 2 2 2 1 1 1 1 1 1 2 2 3 4 4 4 4 4 3
5 6 7 7 6 5 5 5 4 4 4 4 3 2 2 1 2 2 1 1 1 1 1 1 0 1 1 1 1 1 1 2 2 3 3 3 3 3 4 4 4 5 5
3 4 6 6 6 5 5 5 5 5 4 4 3 3 3 2 2 2 2 2 1 2 1 1 1 1 1 1 1 1 2 2 3 4 4 4 4 4 4 4 5 5 5
3 4 4 4 5 5 6 6 5 4 5 5 4 3 3 2 2 3 3 2 1 1 1 1 2 3 3 2 2 2 2 2 3 4 5 5 5 5 5 6 5 5 5
4 4 5 5 5 6 6 5 4 4 4 4 4 4 2 2 2 2 3 3 1 1 2 3 2 4 4 4 4 4 4 4 4 5 6 6 6 5 6 6 6 7 7
4 5 5 5 5 5 5 5 4 4 4 4 4 4 2 2 2 2 3 3 4 3 4 4 3 3 5 5 5 5 5 6 6 7 7 7 6 6 6 7 7 7 8
4 5 5 5 5 5 5 4 4 4 4 4 3 4 3 2 2 2 3 2 3 3 4 3 4 3 4 5 7 7 7 7 8 8 8 8 8 7 7 7 8 8 8
5 6 6 5 5 5 5 5 5 5 5 4 4 5 4 3 3 2 2 2 2 3 4 3 2 2 2 3 4 6 7 6 7 8 8 9 9 9 8 8 9 9 9
5 5 6 6 6 5 5 6 6 6 6 6 6 5 5 4 4 3 3 3 3 3 4 4 3 2 3 4 4 4 5 6 7 8 9 10 10 10 10 10 10 10 9
4 4 5 6 6 6 6 6 6 6 6 7 6 6 6 5 5 3 3 4 3 3 3 3 3 2 2 2 2 3 3 4 7 8 9 10 10 11 11 11 11 10 10
5 5 5 6 5 5 6 6 6 6 6 6 6 6 6 7 7 5 5 5 3 3 3 3 2 2 2 2 1 2 3 3 4 5 8 9 10 11 11 11 11 11 10
4 4 5 5 5 5 5 6 6 6 6 5 5 5 5 6 8 6 5 5 4 4 3 3 3 2 2 1 3 2 3 3 3 3 3 5 6 7 9 10 11 11 11
3 3 4 5 5 5 6 8 7 5 5 6 5 5 5 6 6 7 7 7 6 6 5 4 4 4 4 4 3 2 2 2 4 2 2 4 3 5 7 8 10 11 11
3 3 3 4 5 6 7 8 8 5 5 5 6 5 4 4 5 4 6 6 7 8 8 6 6 6 5 5 4 4 4 4 5 3 2 4 3 4 6 9 11 11 11
3 3 3 4 4 4 6 7 7 6 5 5 6 6 6 5 5 5 5 5 5 6 7 6 7 7 6 6 6 5 5 3 2 2 2 4 3 4 4 7 10 11 11
2 3 3 3 4 4 5 6 6 5 5 5 5 5 5 6 7 6 5 5 5 5 6 9 9 9 9 8 6 2 2 2 4 3 2 3 3 3 3 4 8 10 10
3 2 2 2 3 3 4 6 6 4 4 4 4 4 6 6 7 7 6 6 6 5 3 3 4 5 5 6 7 5 5 4 3 3 3 3 2 2 3 3 3 6 8
Wind_Direction
134 129 125 122 121 122 118 116 114 108 104 103 104 105 106 108 111 115 113 115 127 134 137 137 135 136 133 131 125 119 112 108 110 109 104 100 98 93 86 83 76 68 66
139 134 128 124 126 128 125 122 122 116 108 102 95 102 108 109 111 114 110 110 115 124 134 138 137 137 138 136 133 128 123 118 113 106 104 105 102 95 88 83 78 70 64
144 139 135 134 135 133 125 115 111 105 102 96 85 88 99 104 107 107 110 110 108 110 117 129 139 141 142 138 141 138 133 127 121 117 113 106 102 100 93 86 80 72 65
147 141 139 139 138 132 125 121 120 108 100 98 91 79 82 93 103 109 108 107 108 105 105 110 120 129 135 141 141 142 142 136 133 128 124 119 110 98 92 90 85 73 64
149 142 140 138 138 128 123 135 129 125 115 106 97 80 69 75 85 101 98 100 106 107 104 102 102 102 111 125 140 143 149 146 143 140 134 132 127 116 100 86 88 75 60
149 142 138 139 139 132 125 128 130 119 118 114 97 75 60 61 68 70 90 93 96 103 106 102 96 94 98 95 118 149 151 156 158 152 149 147 140 134 116 102 84 64 62
152 146 143 140 140 147 148 140 131 118 105 110 94 71 38 36 49 49 58 73 79 91 97 104 104 98 91 85 92 129 161 162 167 167 167 166 156 146 135 111 59 35 35
157 157 151 155 151 149 145 144 134 131 124 115 122 114 71 12 3 18 42 56 58 79 77 87 100 100 87 70 53 77 141 176 193 192 192 193 193 197 206 241 273 298 331
159 159 158 154 155 157 164 162 154 149 154 137 118 138 149 192 272 346 10 40 41 62 56 58 83 99 103 82 45 21 8 302 223 209 213 220 222 230 243 261 272 279 294
160 162 162 160 161 163 170 171 166 157 155 161 149 99 140 147 152 169 329 359 35 46 44 38 83 105 109 99 73 8 303 267 253 261 260 260 252 254 256 266 277 281 287
170 170 170 169 171 173 175 167 160 162 164 167 166 151 119 92 123 153 209 285 343 331 326 308 215 129 115 117 97 4 285 256 256 266 266 272 278 281 278 280 281 285 281
182 179 178 177 178 175 176 173 171 170 173 169 171 169 164 162 173 160 184 205 240 280 298 284 234 217 223 185 198 257 263 260 261 264 266 272 281 288 290 291 290 293 282
194 193 180 182 181 179 177 171 169 177 176 171 178 184 181 187 168 155 154 177 209 268 290 280 248 245 232 216 240 237 238 256 267 271 273 277 285 292 291 287 287 290 288
197 189 181 184 183 179 180 174 171 181 173 176 182 178 178 194 175 167 165 163 173 249 259 258 268 241 232 234 237 232 241 251 260 267 273 279 284 287 288 287 286 282 280
188 184 182 183 185 181 179 175 182 183 176 180 181 182 181 196 188 180 167 168 171 206 240 239 238 238 236 236 239 234 241 249 253 256 262 268 274 276 276 280 281 279 276
182 179 183 183 183 183 180 175 183 185 178 184 180 182 193 197 192 181 175 180 183 193 230 230 229 242 243 243 245 239 243 251 251 253 256 260 267 270 271 275 279 280 273
181 183 186 185 187 189 186 184 191 184 188 193 191 192 204 198 197 197 185 188 195 185 225 252 238 236 224 233 248 244 246 245 250 256 260 261 264 265 267 274 276 277 272
187 187 185 185 187 187 188 190 196 196 197 202 202 197 206 202 205 204 197 207 211 202 206 237 243 228 232 233 229 233 246 247 250 258 260 261 263 264 267 272 274 275 272
188 186 184 189 191 190 190 195 196 200 204 207 203 204 208 201 211 210 207 214 218 221 207 216 240 237 241 245 244 253 252 253 257 260 259 259 262 264 268 270 273 271 268
185 187 191 192 192 193 194 194 194 201 208 212 209 208 209 208 212 210 216 217 211 213 212 216 234 241 239 242 221 247 271 258 267 268 261 261 264 265 266 268 269 268 266
184 188 187 191 193 194 199 196 197 201 205 209 214 213 214 218 221 217 220 214 206 213 217 223 234 240 239 230 232 225 254 275 274 257 258 262 260 258 261 262 261 261 263
181 179 188 191 195 206 204 200 197 200 202 206 214 220 225 226 229 229 227 220 210 213 219 221 232 235 240 236 231 236 240 263 274 242 234 270 247 256 257 254 259 263 266
180 185 195 196 202 207 201 198 196 192 200 209 214 215 228 231 231 229 236 232 227 227 224 223 230 235 234 225 216 227 229 240 251 245 243 269 262 259 261 260 264 266 267
188 191 199 204 207 213 203 202 200 197 204 213 215 214 217 223 223 218 221 230 235 239 234 227 229 236 235 221 215 225 231 246 275 262 219 253 261 264 275 266 263 262 265
193 200 203 202 207 223 208 204 199 204 212 219 219 215 217 222 228 221 218 226 241 253 256 246 246 250 248 237 217 196 206 242 265 256 222 228 255 279 278 267 263 264 267
199 199 208 212 214 225 217 211 206 206 215 225 227 226 227 230 232 223 220 222 237 248 246 256 256 254 240 228 218 210 208 232 257 251 219 213 245 267 279 267 267 269 269
Height
1535 1537 1538 1540 1541 1543 1544 1546 1547 1549 1550 1552 1553 1554 1555 1557 1558 1559 1560 1561 1561 1562 1562 1563 1563 1563 1563 1564 1564 1564 1564 1564 1564 1564 1564 1564 1564 1564 1563 1563 1563 1562 1562
1534 1536 1537 1539 1540 1542 1543 1545 1546 1548 1549 1551 1552 1553 1554 1556 1557 1558 1559 1560 1561 1561 1562 1562 1563 1563 1563 1563 1564 1564 1564 1564 1564 1564 1564 1564 1564 1564 1563 1563 1563 1562 1562
1533 1535 1536 1537 1539 1540 1542 1544 1545 1546 1548 1549 1551 1552 1553 1555 1556 1557 1558 1559 1560 1560 1561 1561 1562 1562 1562 1563 1563 1563 1563 1563 1563 1563 1563 1563 1563 1563 1563 1563 1562 1562 1561
1532 1533 1535 1536 1537 1539 1541 1542 1544 1545 1546 1548 1549 1551 1552 1553 1554 1555 1557 1558 1558 1559 1560 1560 1561 1561 1562 1562 1562 1563 1563 1563 1563 1563 1563 1563 1563 1563 1562 1562 1562 1561 1561
1530 1532 1533 1534 1536 1537 1539 1540 1542 1543 1545 1546 1548 1549 1551 1552 1553 1554 1555 1556 1557 1558 1559 1559 1560 1560 1560 1561 1561 1562 1562 1562 1562 1562 1562 1562 1562 1562 1561 1561 1561 1560 1560
1529 1530 1531 1533 1534 1535 1537 1539 1540 1541 1543 1545 1547 1548 1550 1551 1552 1552 1553 1554 1555 1556 1557 1557 1558 1559 1559 1559 1560 1560 1561 1560 1560 1560 1560 1560 1560 1560 1560 1560 1559 1559 1559
1526 1528 1529 1531 1532 1534 1535 1537 1538 1539 1541 1543 1545 1546 1548 1549 1550 1551 1551 1552 1553 1554 1555 1555 1556 1557 1557 1558 1558 1558 1559 1559 1559 1559 1559 1559 1559 1559 1559 1558 1558 1557 1557
1524 1526 1527 1529 1530 1532 1533 1535 1536 1537 1539 1541 1543 1544 1546 1548 1548 1549 1550 1550 1551 1552 1553 1553 1554 1554 1555 1555 1556 1556 1557 1557 1557 1557 1557 1557 1557 1557 1557 1556 1556 1555 1555
1522 1524 1525 1527 1528 1530 1531 1532 1533 1535 1536 1538 1540 1542 1543 1544 1545 1547 1547 1548 1549 1549 1550 1551 1552 1552 1553 1553 1554 1554 1555 1555 1555 1555 1555 1555 1555 1555 1554 1554 1553 1553 1553
1520 1521 1523 1525 1526 1527 1529 1530 1531 1533 1534 1535 1538 1539 1541 1542 1543 1544 1546 1546 1547 1548 1548 1549 1550 1550 1550 1551 1551 1552 1552 1553 1553 1553 1553 1553 1553 1552 1552 1551 1551 1550 1550
1517 1519 1521 1522 1524 1525 1526 1527 1529 1530 1532 1533 1535 1536 1538 1539 1540 1541 1541 1543 1544 1545 1546 1546 1547 1547 1548 1548 1548 1549 1550 1550 1550 1550 1550 1550 1550 1550 1549 1549 1548 1548 1547
1514 1516 1518 1519 1521 1522 1523 1525 1526 1528 1529 1531 1533 1534 1535 1536 1537 1538 1538 1539 1540 1542 1543 1543 1544 1544 1545 1545 1546 1546 1546 1547 1547 1547 1547 1547 1547 1547 1546 1546 1545 1545 1544
1510 1512 1514 1516 1518 1519 1521 1522 1524 1525 1527 1528 1530 1531 1533 1534 1535 1536 1536 1537 1537 1538 1539 1540 1540 1541 1541 1542 1542 1543 1543 1543 1544 1544 1544 1544 1544 1543 1543 1543 1542 1541 1541
1507 1510 1511 1513 1515 1516 1518 1519 1521 1522 1524 1525 1527 1528 1529 1531 1532 1533 1534 1535 1535 1535 1536 1536 1537 1538 1538 1538 1539 1539 1540 1540 1540 1540 1540 1540 1540 1540 1539 1539 1538 1538 1537
1504 1506 1508 1510 1511 1513 1515 1516 1518 1519 1521 1522 1524 1525 1526 1528 1529 1530 1531 1532 1534 1532 1532 1532 1533 1534 1535 1535 1535 1536 1536 1536 1536 1537 1537 1536 1536 1536 1535 1535 1534 1534 1533
1500 1502 1504 1506 1508 1509 1511 1513 1514 1516 1517 1519 1520 1522 1523 1524 1526 1527 1528 1529 1530 1530 1529 1529 1530 1530 1531 1531 1532 1532 1532 1532 1533 1533 1533 1532 1532 1532 1531 1531 1530 1529 1529
1496 1498 1500 1502 1503 1505 1507 1509 1510 1512 1513 1515 1516 1518 1519 1521 1522 1523 1524 1525 1525 1526 1525 1525 1526 1526 1527 1527 1527 1528 1528 1528 1528 1529 1528 1528 1528 1527 1527 1526 1526 1525 1524
1492 1494 1496 1497 1499 1501 1503 1505 1506 1508 1509 1511 1513 1514 1516 1517 1518 1519 1520 1520 1521 1522 1522 1521 1521 1522 1523 1523 1523 1524 1524 1524 1524 1524 1524 1523 1523 1523 1522 1522 1521 1520 1519
1488 1490 1491 1493 1495 1497 1499 1501 1502 1504 1506 1507 1509 1510 1511 1513 1514 1515 1515 1516 1517 1517 1518 1518 1517 1518 1518 1519 1519 1519 1519 1519 1519 1519 1519 1519 1518 1518 1517 1516 1516 1515 1514
1484 1486 1487 1489 1491 1493 1495 1496 1498 1500 1501 1503 1504 1506 1507 1508 1509 1510 1511 1512 1512 1513 1513 1513 1513 1513 1514 1514 1514 1514 1513 1514 1514 1514 1514 1514 1513 1513 1512 1511 1511 1510 1509
1480 1482 1483 1485 1487 1489 1490 1492 1494 1495 1497 1498 1500 1501 1502 1504 1504 1505 1506 1507 1508 1508 1508 1509 1508 1509 1509 1509 1509 1509 1509 1509 1508 1509 1508 1508 1508 1507 1507 1506 1505 1504 1503
1476 1478 1479 1481 1482 1484 1486 1488 1490 1491 1492 1494 1495 1496 1498 1499 1500 1500 1501 1502 1503 1503 1503 1504 1503 1503 1503 1504 1505 1504 1504 1503 1503 1504 1503 1503 1503 1502 1501 1501 1500 1499 1498
1472 1474 1475 1477 1478 1480 1482 1484 1485 1487 1488 1489 1490 1491 1492 1493 1494 1495 1496 1497 1497 1498 1499 1499 1499 1499 1499 1500 1500 1499 1499 1499 1498 1499 1498 1496 1497 1496 1496 1495 1494 1493 1492
1468 1470 1471 1473 1474 1476 1478 1479 1481 1482 1483 1484 1485 1486 1487 1488 1489 1490 1491 1491 1491 1492 1493 1493 1494 1494 1495 1495 1495 1495 1494 1494 1493 1493 1493 1492 1491 1490 1490 1489 1488 1487 1486
1465 1466 1468 1469 1470 1472 1474 1475 1476 1477 1477 1478 1480 1481 1482 1483 1484 1485 1485 1485 1485 1486 1488 1488 1489 1489 1489 1489 1490 1489 1489 1488 1487 1487 1488 1487 1485 1484 1483 1482 1482 1481 1480
1461 1463 1464 1465 1467 1468 1469 1471 1472 1472 1473 1473 1475 1476 1477 1478 1479 1479 1480 1480 1480 1480 1482 1482 1483 1483 1483 1484 1484 1484 1484 1483 1482 1481 1481 1481 1479 1478 1476 1474 1475 1474 1473